Regional Weather Roundup
Issued by NWS Little Rock, AR

Home | Current Version | Previous Version | Graphics & Text | Print | Product List | Glossary On
Versions: 1 2 3 4 5 6 7 8 9 10 11 12 13 14 15 16 17 18 19 20 21 22 23 24 25 26 27 28 29 30 31 32 33 34 35 36 37 38 39 40 41 42 43 44 45 46 47 48 49 50
000
ASUS44 KLZK 021005
RWRLZK

WEATHER ROUNDUP FOR ARKANSAS
NATIONAL WEATHER SERVICE LITTLE ROCK AR
500 AM CDT WED SEP 02 2015

NOTE: "FAIR" INDICATES FEW OR NO CLOUDS BELOW 12,000 FEET WITH NO
SIGNIFICANT WEATHER AND/OR OBSTRUCTIONS TO VISIBILITY.

ARZ001-003-010-029-021100-
NORTHWEST ARKANSAS

CITY           SKY/WX    TMP DP  RH WIND       PRES   REMARKS
FAYETTEVILLE   CLEAR     66  66 100 CALM      30.09F
FORT SMITH     CLEAR     72  66  81 CALM      30.06S
HARRISON       CLEAR     67  64  90 S3        30.10F
BENTONVILLE    CLEAR     68  63  83 CALM      30.09S
ROGERS         CLEAR     70  65  84 S6        30.10S
SILOAM SPGS    CLEAR     70  61  73 S3        30.07S
HIGHFILL       CLEAR     69  66  90 S3        30.09S
$$

ARZ004-005-016-021100-
NORTH CENTRAL ARKANSAS

CITY           SKY/WX    TMP DP  RH WIND       PRES   REMARKS
BATESVILLE     CLEAR     70  68  94 E5        30.08S
FLIPPIN        CLEAR     66  61  82 CALM      30.07R
MTN HOME       CLEAR     68  67  96 CALM      30.09R FOG
$$

ARZ040-041-021100-
WEST CENTRAL ARKANSAS

CITY           SKY/WX    TMP DP  RH WIND       PRES   REMARKS
MENA           CLEAR     68  66  94 CALM      30.10R
MOUNT IDA      CLEAR     66  64  93 CALM      30.06S FOG
$$

ARZ009-017-025-026-028-021100-
NORTHEAST ARKANSAS

CITY           SKY/WX    TMP DP  RH WIND       PRES   REMARKS
JONESBORO      PTCLDY    68  68 100 CALM      30.07S
NEWPORT        PTCLDY    72  71  96 CALM      30.08S
WALNUT RIDGE   CLEAR     72  66  83 CALM      30.07S
BLYTHEVILLE    PTCLDY    72  72 100 CALM      30.08R
$$

ARZ022-023-033-042-044-021100-
CENTRAL ARKANSAS

CITY           SKY/WX    TMP DP  RH WIND       PRES   REMARKS
LITTLE ROCK    MOCLDY    73  69  87 CALM      30.07R
N LITTLE ROCK    N/A     73  70  89 W2        30.07R
JACKSONVILLE   PTCLDY    70  68  93 W2        30.06S
SEARCY         CLEAR     71  71 100 CALM      30.09R FOG
HOT SPRINGS    CLEAR     68  66  93 CALM      30.08S
RUSSELLVILLE   CLEAR     67  65  93 CALM      30.07R
$$

ARZ036-021100-
EAST ARKANSAS

CITY           SKY/WX    TMP DP  RH WIND       PRES   REMARKS
WEST MEMPHIS   MOCLDY    72  72 100 CALM      30.06S
$$

ARZ050-053-066-070-073-021100-
SOUTHWEST ARKANSAS

CITY           SKY/WX    TMP DP  RH WIND       PRES   REMARKS
ARKADELPHIA    FAIR      69  69 100 CALM      30.07S
CAMDEN         FOG       68  66  94 CALM      30.06R VSB 1/2
TEXARKANA      PTCLDY    72  69  90 CALM      30.07S
EL DORADO      MOCLDY    70  68  93 CALM      30.07R
DE QUEEN       CLEAR     67  66  97 CALM      30.05S FOG
$$

ARZ056-057-069-021100-
SOUTHEAST ARKANSAS

CITY           SKY/WX    TMP DP  RH WIND       PRES   REMARKS
PINE BLUFF     CLOUDY    73  70  90 CALM      30.07R
STUTTGART      PTCLDY    75  68  78 E5        30.07R
MONTICELLO     CLOUDY    76  74  93 CALM      30.05S

$$





USA.gov is the U.S. government's official web portal to all federal, state and local government web resources and services.